Location: Santa Giusta
(39.8800°N, 8.6069°E)
Time: 16:40:38
(UTC+00:00)

Cosmos 1844 Rocket - Pass Details

Date: 02 February 2023
Orbit: 825 x 843 km, 71.0° (Epoch: 31 March)

Event Time Altitude Azimuth Distance (km) Brightness Sun altitude
Rises 18:00:20 0° 340° (NNW) 3,371 6.0 -14.6°
Reaches altitude 10° 18:02:50 10° 345° (NNW) 2,434 5.2 -15.1°
Maximum altitude 18:08:18 55° 63° (ENE) 988 2.7 -16.1°
Drops below altitude 10° 18:13:44 10° 141° (SE) 2,421 4.8 -17.1°
Enters shadow 18:16:04 - 146° (SE) 3,301 5.5 -17.6°
